FW7384 Weather Reports


Display with metric or nautical units.
time (UTC)temp
F
wind
direction
speed
MPH
gust
MPH
rain 1hr
in
rain 24hr
in
rain mn
in
humidity
%
barometer
mb
20260504010214 47 144 1.0 2.0 0.07 0.13 0.13 98 1007.1
20260504005503 47 0 0.0 0.0 0.07 0.13 0.12 98 1007.0
20260504005004 47 0 0.0 0.0 0.07 0.12 0.12 98 1007.2
20260504004503 47 0 0.0 0.0 0.07 0.12 0.11 98 1007.1
20260504004003 47 0 0.0 0.0 0.07 0.12 0.11 98 1007.2
20260504003503 47 214 0.0 2.0 0.07 0.11 0.11 98 1007.4
20260504003003 47 199 1.0 2.0 0.08 0.11 0.11 98 1007.4
20260504002712 47 181 1.0 2.0 0.08 0.11 0.11 98 1007.7
20260504002213 47 167 2.0 2.0 0.07 0.10 0.10 98 1007.5
20260504001504 47 168 1.0 2.0 0.06 0.08 0.08 98 1007.6
20260504001003 47 163 0.0 2.0 0.05 0.07 0.06 97 1007.5
20260504000503 47 173 0.0 1.0 0.04 0.06 0.06 97 1007.5
20260504000003 47 0 0.0 0.0 0.04 0.06 0.05 97 1007.5
20260503235503 47 32 0.0 1.0 0.04 0.05 0.05 97 1007.4
20260503235003 47 53 0.0 1.0 0.04 0.05 0.05 97 1007.4
20260503234503 47 64 0.0 1.0 0.03 0.05 0.04 97 1007.6
20260503234003 47 0 0.0 0.0 0.03 0.05 0.04 97 1007.6
20260503233503 47 269 0.0 1.0 0.03 0.04 0.04 97 1007.5
20260503233003 47 257 0.0 2.0 0.02 0.03 0.03 97 1007.6
20260503232503 47 243 0.0 2.0 0.02 0.03 0.03 97 1007.7
20260503232003 47 207 1.0 2.0 0.01 0.03 0.02 97 1007.7
20260503231503 47 175 1.0 2.0 0.01 0.02 0.02 97 1007.6
20260503231003 47 132 1.0 2.0 0.01 0.02 0.02 97 1007.7
20260503230503 47 99 0.0 2.0 0.01 0.02 0.01 97 1007.4
20260503230213 47 38 0.0 2.0 0.01 0.02 0.01 96 1007.3
20260503225503 47 329 1.0 3.0 0.02 0.02 0.01 96 1007.4
20260503225003 47 19 1.0 3.0 0.02 0.02 0.01 96 1007.5
20260503224503 47 28 1.0 3.0 0.02 0.02 0.01 96 1007.4
20260503224213 47 38 1.0 2.0 0.02 0.02 0.01 95 1007.6
20260503223503 47 19 0.0 2.0 0.01 0.01 0.01 95 1007.7
20260503223004 48 356 0.0 2.0 0.01 0.01 0.01 95 1007.9
20260503222503 48 97 0.0 1.0 0.01 0.01 0.01 94 1007.8
20260503222003 48 64 0.0 1.0 0.01 0.01 0.01 94 1007.8
20260503221503 48 19 0.0 1.0 0.01 0.01 0.01 94 1007.8
20260503221003 48 18 0.0 1.0 0.01 0.01 0.01 94 1007.7
20260503220503 48 131 0.0 2.0 0.01 0.01 0.00 93 1008.0
20260503220004 48 161 0.0 2.0 0.00 0.00 0.00 93 1008.1
20260503215503 47 149 0.0 2.0 0.00 0.00 0.00 94 1008.2
20260503215003 47 113 0.0 2.0 0.00 0.00 0.00 93 1008.1
20260503214503 47 70 0.0 2.0 0.00 0.00 0.00 93 1008.0
20260503214003 47 48 0.0 1.0 0.00 0.00 0.00 93 1008.2
20260503213503 47 35 0.0 2.0 0.00 0.00 0.00 93 1008.3
20260503213003 47 17 0.0 2.0 0.00 0.00 0.00 93 1008.3
20260503212503 47 25 0.0 2.0 0.00 0.00 0.00 93 1008.1
20260503212003 48 44 0.0 2.0 0.00 0.00 0.00 92 1008.3
20260503211503 48 57 0.0 1.0 0.00 0.00 0.00 92 1008.5
20260503211003 48 55 0.0 2.0 0.00 0.00 0.00 92 1008.3
20260503210713 48 48 0.0 2.0 0.00 0.00 0.00 92 1008.4
20260503210003 48 54 0.0 2.0 0.00 0.00 0.00 92 1008.4
20260503205503 48 75 0.0 2.0 0.00 0.00 0.00 91 1008.6
20260503205003 48 103 0.0 2.0 0.00 0.00 0.00 90 1008.7
20260503204503 49 190 0.0 2.0 0.00 0.00 0.00 91 1008.7
20260503204003 49 239 0.0 2.0 0.00 0.00 0.00 91 1008.9
20260503203503 49 200 1.0 3.0 0.00 0.00 0.00 90 1008.9
20260503203003 49 159 1.0 3.0 0.00 0.00 0.00 90 1008.9
20260503202503 49 143 1.0 2.0 0.00 0.00 0.00 90 1008.9
20260503202214 49 145 1.0 2.0 0.00 0.00 0.00 90 1008.9
20260503201503 49 135 1.0 2.0 0.00 0.00 0.00 90 1008.7
20260503201003 49 128 0.0 2.0 0.00 0.00 0.00 89 1008.9
20260503200503 49 178 0.0 2.0 0.00 0.00 0.00 89 1009.0
20260503200003 49 192 0.0 2.0 0.00 0.00 0.00 89 1008.9
20260503195503 49 185 0.0 2.0 0.00 0.00 0.00 88 1009.2
20260503195003 50 180 1.0 2.0 0.00 0.00 0.00 88 1009.0
20260503194503 50 184 1.0 2.0 0.00 0.00 0.00 88 1009.1
20260503194003 50 164 1.0 2.0 0.00 0.00 0.00 88 1009.1
20260503193713 50 156 1.0 2.0 0.00 0.00 0.00 88 1008.9
20260503193003 50 176 1.0 3.0 0.00 0.00 0.00 88 1009.3
20260503192504 50 171 1.0 5.0 0.00 0.00 0.00 88 1009.2
20260503192003 50 161 2.0 5.0 0.00 0.00 0.00 87 1009.4
20260503191503 51 147 2.0 5.0 0.00 0.00 0.00 87 1009.1
20260503191003 51 148 2.0 5.0 0.00 0.00 0.00 87 1009.0
20260503190503 51 167 2.0 4.0 0.00 0.00 0.00 87 1009.1
20260503190003 51 166 2.0 4.0 0.00 0.00 0.00 87 1009.1
20260503185503 51 167 2.0 3.0 0.00 0.00 0.00 86 1009.2
20260503185003 51 162 2.0 4.0 0.00 0.00 0.00 86 1009.2
20260503184503 51 163 2.0 4.0 0.00 0.00 0.00 86 1009.2
20260503184003 52 169 2.0 4.0 0.00 0.00 0.00 85 1009.1
20260503183503 52 178 2.0 4.0 0.00 0.00 0.00 85 1009.1
20260503183003 52 172 2.0 5.0 0.00 0.00 0.00 84 1009.3
20260503182503 52 170 3.0 5.0 0.00 0.00 0.00 84 1009.2
20260503182004 52 183 2.0 5.0 0.00 0.00 0.00 84 1009.1
20260503181504 53 179 3.0 5.0 0.00 0.00 0.00 83 1009.2
20260503181003 53 167 4.0 6.0 0.00 0.00 0.00 83 1009.4
20260503180503 53 174 4.0 7.0 0.00 0.00 0.00 82 1009.3
20260503180004 53 185 3.0 7.0 0.00 0.00 0.00 82 1009.4
20260503175503 54 174 4.0 7.0 0.00 0.00 0.00 81 1009.1
20260503175003 54 159 4.0 7.0 0.00 0.00 0.00 80 1009.2
20260503174503 54 158 4.0 6.0 0.00 0.00 0.00 80 1009.1
20260503171003 55 198 2.0 5.0 0.00 0.00 0.00 74 1009.1
20260503170504 55 210 2.0 4.0 0.00 0.00 0.00 73 1009.3
20260503150503 54 204 3.0 8.0 0.00 0.00 0.00 77 1010.0
20260503140213 53 192 3.0 7.0 0.00 0.00 0.00 81 1010.2
20260503131003 52 189 3.0 9.0 0.00 0.00 0.00 86 1010.7
20260503130503 52 191 3.0 9.0 0.00 0.00 0.00 86 1010.7
20260503110503 52 193 3.0 8.0 0.00 0.00 0.00 87 1010.8
20260503110214 52 202 3.0 7.0 0.00 0.00 0.00 87 1010.7
20260503090503 52 205 3.0 8.0 0.00 0.00 0.00 87 1010.7
20260503081503 53 196 3.0 7.0 0.00 0.00 0.00 84 1010.1
20260503081003 53 204 3.0 6.0 0.00 0.00 0.00 83 1010.2
20260503080714 54 213 2.0 5.0 0.00 0.00 0.00 83 1010.0
20260503072503 54 206 5.0 9.0 0.00 0.00 0.00 81 1009.9
20260503072003 54 200 4.0 9.0 0.00 0.00 0.00 81 1009.8
20260503071713 54 197 4.0 9.0 0.00 0.00 0.00 81 1009.7
20260503071003 54 202 4.0 9.0 0.00 0.00 0.00 80 1009.7
20260503070503 55 201 3.0 9.0 0.00 0.00 0.00 80 1009.6
20260503060214 54 185 3.0 7.0 0.00 0.00 0.00 86 1009.6
20260503055003 54 185 3.0 6.0 0.00 0.00 0.00 87 1009.2
20260503054713 54 182 3.0 6.0 0.00 0.00 0.00 87 1009.2
20260503054214 54 197 3.0 6.0 0.00 0.00 0.00 87 1009.2
20260503053503 53 199 3.0 6.0 0.00 0.00 0.00 87 1009.2
20260503053003 53 189 2.0 5.0 0.00 0.00 0.00 87 1009.3
20260503052503 53 188 2.0 5.0 0.00 0.00 0.00 87 1009.3
20260503052003 53 194 3.0 5.0 0.00 0.00 0.00 87 1009.2
20260503051503 53 200 2.0 4.0 0.00 0.00 0.00 87 1009.4
20260503051003 53 188 2.0 6.0 0.00 0.00 0.00 87 1009.3
20260503050503 53 187 2.0 6.0 0.00 0.00 0.00 87 1009.4
20260503050003 53 195 2.0 4.0 0.00 0.00 0.00 87 1009.3
20260503045503 53 199 1.0 3.0 0.00 0.00 0.00 87 1009.5
20260503045003 53 188 2.0 4.0 0.00 0.00 0.00 87 1009.3
20260503044503 53 189 2.0 4.0 0.00 0.00 0.00 87 1009.4
20260503044003 53 190 2.0 5.0 0.00 0.00 0.00 86 1009.2
20260503043503 53 182 2.0 5.0 0.00 0.00 0.00 86 1009.4
20260503043003 53 169 2.0 6.0 0.00 0.00 0.00 85 1009.3
20260503042503 53 184 4.0 9.0 0.00 0.00 0.00 85 1009.2
20260503042003 53 188 4.0 9.0 0.00 0.00 0.00 85 1009.5
20260503041503 53 180 3.0 7.0 0.00 0.00 0.00 85 1009.5
20260503041003 53 188 2.0 4.0 0.00 0.00 0.00 85 1009.4
20260503040714 53 186 2.0 4.0 0.00 0.00 0.00 84 1009.2
20260503040003 53 169 2.0 5.0 0.00 0.00 0.00 84 1009.3
20260503035503 53 176 2.0 5.0 0.00 0.00 0.00 84 1009.4
20260503035003 53 173 2.0 4.0 0.00 0.00 0.00 84 1009.3
20260503034714 53 185 2.0 4.0 0.00 0.00 0.00 84 1009.4
20260503034003 54 169 2.0 4.0 0.00 0.00 0.00 84 1009.4
20260503033503 54 176 2.0 4.0 0.00 0.00 0.00 84 1009.3
20260503033213 54 178 2.0 4.0 0.00 0.00 0.00 84 1009.4
20260503032503 54 187 2.0 5.0 0.00 0.00 0.00 84 1009.6
20260503032003 54 197 2.0 5.0 0.00 0.00 0.00 83 1009.5
20260503031503 54 191 2.0 5.0 0.00 0.00 0.00 83 1009.5
20260503031003 54 183 2.0 4.0 0.00 0.00 0.00 83 1009.4
20260503030503 54 185 2.0 4.0 0.00 0.00 0.00 83 1009.4
20260503030003 54 187 2.0 4.0 0.00 0.00 0.00 83 1009.6
20260503025503 54 185 2.0 4.0 0.00 0.00 0.00 83 1009.6
20260503025003 54 191 2.0 4.0 0.00 0.00 0.00 83 1009.6
20260503024503 54 187 2.0 3.0 0.00 0.00 0.00 83 1009.5
20260503024003 53 176 1.0 3.0 0.00 0.00 0.00 82 1009.6
20260503023503 53 170 1.0 3.0 0.00 0.00 0.00 82 1009.7
20260503023003 53 173 1.0 3.0 0.00 0.00 0.00 81 1009.7
20260503022503 54 158 1.0 2.0 0.00 0.00 0.00 81 1009.7
20260503022003 54 160 1.0 2.0 0.00 0.00 0.00 81 1009.7
20260503021503 54 171 1.0 3.0 0.00 0.00 0.00 81 1009.6
20260503021003 54 173 1.0 3.0 0.00 0.00 0.00 81 1009.6
20260503020503 54 178 1.0 2.0 0.00 0.00 0.00 81 1009.8
20260503020003 53 170 1.0 3.0 0.00 0.00 0.00 81 1009.9
20260503015503 53 165 1.0 3.0 0.00 0.00 0.00 80 1009.9
20260503015003 53 178 2.0 3.0 0.00 0.00 0.00 80 1009.7
20260503014503 54 175 2.0 3.0 0.00 0.00 0.00 80 1009.7
20260503014003 54 186 1.0 3.0 0.00 0.00 0.00 79 1009.8
20260503013713 54 193 1.0 3.0 0.00 0.00 0.00 79 1009.9
20260503013003 54 193 1.0 3.0 0.00 0.00 0.00 78 1010.1
20260503012503 54 188 1.0 4.0 0.00 0.00 0.00 77 1010.3
20260503012003 54 179 2.0 4.0 0.00 0.00 0.00 77 1010.1
20260503011713 54 180 2.0 4.0 0.00 0.00 0.00 77 1009.9
20260503011214 53 191 2.0 4.0 0.00 0.00 0.00 78 1010.1
20260503010503 52 156 0.0 3.0 0.00 0.00 0.00 78 1010.0